TimeCDT,TemperatureF,Dew PointF,Humidity,Sea Level PressureIn,VisibilityMPH,Wind Direction,Wind SpeedMPH,Gust SpeedMPH,PrecipitationIn,Events,Conditions,WindDirDegrees,DateUTC
12:52 AM,64.4,53.6,68,29.88,8.0,Calm,Calm,-,N/A,,Clear,0,2013-07-27 05:52:00
1:49 AM,62.6,53.6,72,30.32,7.0,NE,5.8,-,N/A,,Clear,40,2013-07-27 06:49:00
2:50 AM,59.0,55.4,88,30.31,7.0,Calm,Calm,-,N/A,,Clear,0,2013-07-27 07:50:00
3:48 AM,60.8,55.4,82,29.83,7.0,Calm,Calm,-,N/A,,Clear,0,2013-07-27 08:48:00
5:39 AM,59.0,53.6,82,30.29,7.0,Calm,Calm,-,N/A,,Clear,0,2013-07-27 10:39:00
5:46 AM,59.0,53.6,82,30.28,7.0,Calm,Calm,-,N/A,,Clear,0,2013-07-27 10:46:00
6:49 AM,57.2,51.8,82,29.83,6.0,Calm,Calm,-,N/A,,Clear,0,2013-07-27 11:49:00
6:50 AM,56,40,44,29.99,5,North,2.2,,,,,0,2013-07-27 11:50:00
7:40 AM,55.4,51.8,88,30.30,3.0,Calm,Calm,-,N/A,,Clear,0,2013-07-27 12:40:00
8:48 AM,60.8,55.4,82,30.30,10.0,Calm,Calm,-,N/A,,Clear,0,2013-07-27 13:48:00
9:41 AM,64.4,53.6,68,29.87,10.0,Calm,Calm,-,N/A,,Clear,0,2013-07-27 14:41:00
9:50 AM,70,43,26,30.04,11,North,4.5,,,,Haze,0,2013-07-27 14:50:00
10:43 AM,69.8,48.2,46,30.29,12.0,Calm,Calm,-,N/A,,Clear,0,2013-07-27 15:43:00
11:40 AM,75.2,46.4,36,30.28,12.0,Calm,Calm,-,N/A,,Partly Cloudy,0,2013-07-27 16:40:00
12:40 PM,77.0,44.6,32,29.80,15.0,Calm,Calm,-,N/A,,Scattered Clouds,0,2013-07-27 17:40:00
1:00 PM,81,42,15,29.95,12,North,4.5,,,,,0,2013-07-27 18:00:00
1:43 PM,80.6,42.8,26,30.24,15.0,Calm,Calm,-,N/A,,Scattered Clouds,0,2013-07-27 18:43:00
2:45 PM,84.2,44.6,25,30.21,15.0,North,4.6,-,N/A,,Mostly Cloudy,350,2013-07-27 19:45:00
3:44 PM,84.2,44.6,25,29.71,15.0,ENE,6.9,-,N/A,,Mostly Cloudy,70,2013-07-27 20:44:00
3:50 PM,87,46,15,29.81,12,East,4.5,,,,Partly Cloudy,90,2013-07-27 20:50:00
4:48 PM,82.4,44.6,26,30.16,15.0,NNW,17.3,-,N/A,,Mostly Cloudy,330,2013-07-27 21:48:00
5:45 PM,82.4,44.6,26,30.14,15.0,ENE,11.5,-,N/A,,Scattered Clouds,70,2013-07-27 22:45:00
6:47 PM,82.4,44.6,26,29.72,15.0,East,15.0,-,N/A,,Scattered Clouds,90,2013-07-27 23:47:00
7:45 PM,80.6,46.4,30,30.15,15.0,East,11.5,-,N/A,,Scattered Clouds,90,2013-07-28 00:45:00
8:48 PM,73.4,51.8,47,30.16,12.0,East,13.8,-,N/A,,Scattered Clouds,90,2013-07-28 01:48:00
9:47 PM,69.8,50.0,49,29.77,12.0,East,11.5,-,N/A,,Scattered Clouds,100,2013-07-28 02:47:00
10:44 PM,66.2,50.0,56,30.23,12.0,SE,6.9,-,N/A,,Partly Cloudy,130,2013-07-28 03:44:00
11:49 PM,64.4,50.0,59,30.25,12.0,Calm,Calm,-,N/A,,Partly Cloudy,0,2013-07-28 04:49:00